Kaneohe MCBH, HI

11:55 PM HST on July 21, 2017 (GMT -1000)
Kaneohe Bay Marine Corps Air Facility

Weather History for PHNG - January, 2013

Change the Weather History Date:

Wednesday, January 16, 2013

  Actual Average Record
Temperature  
Mean Temperature 74 °F -  
Max Temperature 80 °F 76 °F 82 °F (2014)
Min Temperature 69 °F 66 °F 60 °F (2003)
Cooling Degree Days 10    
Growing Degree Days 24 (Base 50)    
Moisture  
Dew Point 59 °F    
Average Humidity 61    
Maximum Humidity 72    
Minimum Humidity 48    
Precipitation  
Precipitation 0.00 in - - ()
Sea Level Pressure  
Sea Level Pressure 29.90 in    
Wind  
Wind Speed 4 mph (North)    
Max Wind Speed 14 mph    
Max Gust Speed -    
Visibility 10 miles    
Events      
Averages and records for this station are not official NWS values.
T = Trace of Precipitation, MM = Missing Value Source: NWS Daily Summary

Daily Weather History Graph

Daily Weather History Graph

Search for Another Location

Airport or City:

Trip Planner

Search our weather history database for the weather conditions in past years. The results will help you decide how hot, cold, wet, or windy it might be!

Date:

Astronomy

Jan. 16, 2013 Rise Set
Actual Time 7:11 AM HST 6:10 PM HST
Civil Twilight 6:47 AM HST 6:34 PM HST
Nautical Twilight 6:20 AM HST 7:01 PM HST
Astronomical Twilight 5:53 AM HST 7:28 PM HST
Moon 10:41 AM HST (1/16) 11:21 PM HST (1/16)
Length of Visible Light 11h 46m
Length of Day
10h 59m
Waxing Crescent, 30% of the Moon is Illuminated
Jan 16
Waxing Crescent
Jan 18
First Quarter
Jan 26
Full
Feb 3
Last Quarter
Feb 9
New

Hourly Weather History & Observations

Time (HST) Temp. Heat Index Dew Point Humidity Pressure Visibility Wind Dir Wind Speed Gust Speed Precip Events Conditions
12:57 AM - - - N/A% 29.92 in 10.0 mi Calm Calm - N/A   Clear
1:57 AM - - - N/A% 29.93 in 10.0 mi Calm Calm - N/A   Clear
2:57 AM - - - N/A% 29.92 in 10.0 mi Calm Calm - N/A   Clear
3:57 AM - - - N/A% 29.91 in 10.0 mi Calm Calm - N/A   Clear
4:57 AM 69.8 °F - 57.0 °F 64% 29.91 in 10.0 mi Calm Calm - N/A   Clear
5:57 AM 69.8 °F - 55.9 °F 61% 29.91 in 10.0 mi South 3.5 mph - N/A   Clear
6:57 AM 69.8 °F - 55.9 °F 61% 29.92 in 10.0 mi Calm Calm - N/A   Clear
7:57 AM 69.8 °F - 55.9 °F 61% 29.94 in 10.0 mi Calm Calm - N/A   Clear
8:57 AM 69.8 °F - 57.0 °F 64% 29.95 in 10.0 mi Calm Calm - N/A   Clear
9:57 AM 73.4 °F - 59.0 °F 61% 29.96 in 10.0 mi NNE 5.8 mph - N/A   Partly Cloudy
10:57 AM 75.2 °F - 57.0 °F 53% 29.94 in 10.0 mi North 13.8 mph - N/A   Clear
11:57 AM 77.0 °F - 64.0 °F 64% 29.91 in 10.0 mi NNW 13.8 mph - N/A   Scattered Clouds
12:57 PM 78.8 °F - 62.1 °F 56% 29.86 in 10.0 mi NNW 10.4 mph - N/A   Scattered Clouds
1:57 PM 80.6 °F 81.1 °F 59.0 °F 48% 29.83 in 10.0 mi NNE 10.4 mph - N/A   Clear
2:57 PM 80.6 °F 81.1 °F 59.0 °F 48% 29.83 in 10.0 mi North 9.2 mph - N/A   Scattered Clouds
3:57 PM 80.6 °F 81.1 °F 59.0 °F 48% 29.84 in 10.0 mi North 9.2 mph - N/A   Overcast
4:57 PM 75.2 °F - 59.0 °F 57% 29.85 in 10.0 mi North 9.2 mph - N/A   Mostly Cloudy
5:57 PM 73.4 °F - 61.0 °F 65% 29.87 in 10.0 mi North 11.5 mph - N/A   Mostly Cloudy
6:57 PM 73.4 °F - 61.0 °F 65% 29.88 in 10.0 mi NNW 12.7 mph - N/A   Mostly Cloudy
7:57 PM 71.6 °F - 61.0 °F 69% 29.90 in 10.0 mi NNW 9.2 mph - N/A   Overcast
8:57 PM 71.6 °F - 61.0 °F 69% 29.92 in 10.0 mi North 10.4 mph - N/A   Partly Cloudy
9:57 PM 71.6 °F - 62.1 °F 72% 29.91 in 10.0 mi North 4.6 mph - N/A   Mostly Cloudy
10:57 PM 71.6 °F - 61.0 °F 69% 29.91 in 10.0 mi North 9.2 mph - 0.00 in   Mostly Cloudy
11:57 PM 69.8 °F - 60.1 °F 71% 29.90 in 10.0 mi Calm Calm - N/A   Mostly Cloudy